| time (UTC) | temp F | wind direction | speed knots | gust knots | rain 1hr in | rain 24hr in | rain mn in | humidity % | barometer mb |
| 20260508060052 | 39 | 266 | 0.0 | 0.0 | 0.00 | 0.21 | 0.00 | 74 | 1008.1 |
| 20260508054645 | 39 | 266 | 0.0 | 0.0 | 0.00 | 0.21 | 0.00 | 75 | 1008.5 |
| 20260508053044 | 39 | 266 | 0.0 | 0.0 | 0.00 | 0.21 | 0.00 | 75 | 1008.5 |
| 20260508051542 | 40 | 266 | 0.0 | 0.0 | 0.00 | 0.21 | 0.00 | 76 | 1008.6 |
| 20260508050039 | 40 | 266 | 0.0 | 0.0 | 0.00 | 0.21 | 0.00 | 73 | 1008.8 |
| 20260508044537 | 41 | 266 | 0.0 | 0.0 | 0.00 | 0.21 | 0.00 | 70 | 1008.9 |
| 20260508043009 | 41 | 266 | 0.0 | 0.0 | 0.00 | 0.24 | 0.00 | 70 | 1009.0 |
| 20260508041504 | 42 | 266 | 0.0 | 0.0 | 0.00 | 0.24 | 0.00 | 69 | 1009.0 |
| 20260508040031 | 42 | 266 | 0.0 | 0.0 | 0.00 | 0.24 | 0.00 | 68 | 1009.0 |
| 20260508034529 | 43 | 266 | 0.0 | 0.0 | 0.00 | 0.24 | 0.00 | 67 | 1009.0 |
| 20260508033057 | 44 | 266 | 0.0 | 0.0 | 0.00 | 0.28 | 0.00 | 63 | 1008.9 |
| 20260508031556 | 45 | 266 | 0.0 | 0.0 | 0.00 | 0.28 | 0.00 | 62 | 1008.9 |
| 20260508030037 | 49 | 266 | 0.0 | 0.0 | 0.00 | 0.28 | 0.00 | 55 | 1008.9 |
| 20260508024545 | 51 | 266 | 0.0 | 0.0 | 0.00 | 0.28 | 0.00 | 51 | 1009.0 |
| 20260508023033 | 51 | 266 | 0.0 | 0.0 | 0.00 | 0.28 | 0.00 | 52 | 1008.9 |
| 20260508021633 | 52 | 263 | 0.0 | 3.5 | 0.00 | 0.28 | 0.00 | 47 | 1009.0 |
| 20260508020031 | 52 | 274 | 1.7 | 6.1 | 0.00 | 0.28 | 0.00 | 46 | 1009.0 |
| 20260508014537 | 52 | 255 | 0.0 | 3.5 | 0.00 | 0.28 | 0.00 | 51 | 1009.0 |
| 20260508013028 | 52 | 258 | 0.0 | 0.0 | 0.00 | 0.28 | 0.00 | 45 | 1008.9 |
| 20260508011625 | 53 | 276 | 0.0 | 3.5 | 0.00 | 0.28 | 0.00 | 46 | 1008.5 |
| 20260508010033 | 54 | 283 | 0.9 | 7.0 | 0.00 | 0.28 | 0.00 | 48 | 1008.3 |
| 20260508004523 | 54 | 272 | 0.0 | 4.3 | 0.00 | 0.28 | 0.00 | 45 | 1008.0 |
| 20260508003021 | 55 | 276 | 0.0 | 9.6 | 0.00 | 0.28 | 0.00 | 47 | 1007.8 |
| 20260508001620 | 55 | 320 | 7.0 | 13.9 | 0.00 | 0.28 | 0.00 | 45 | 1007.6 |
| 20260508000022 | 55 | 288 | 8.7 | 13.0 | 0.00 | 0.28 | 0.00 | 42 | 1007.6 |
| 20260507234519 | 56 | 297 | 10.4 | 14.8 | 0.00 | 0.28 | 0.00 | 44 | 1007.5 |
| 20260507231513 | 57 | 262 | 8.7 | 16.5 | 0.00 | 0.31 | 0.00 | 46 | 1007.2 |
| 20260507230009 | 57 | 272 | 9.6 | 14.8 | 0.00 | 0.31 | 0.00 | 44 | 1007.2 |
| 20260507224508 | 57 | 308 | 7.8 | 16.5 | 0.00 | 0.31 | 0.00 | 43 | 1007.0 |
| 20260507223006 | 57 | 303 | 11.3 | 16.5 | 0.00 | 0.33 | 0.00 | 43 | 1006.8 |
| 20260507221510 | 57 | 307 | 11.3 | 18.2 | 0.00 | 0.33 | 0.00 | 45 | 1006.9 |
| 20260507220059 | 58 | 290 | 7.0 | 14.8 | 0.00 | 0.33 | 0.00 | 46 | 1006.9 |
| 20260507214605 | 58 | 311 | 9.6 | 14.8 | 0.00 | 0.33 | 0.00 | 47 | 1006.7 |
| 20260507213057 | 58 | 303 | 6.1 | 14.8 | 0.00 | 0.38 | 0.33 | 42 | 1006.6 |
| 20260507211559 | 58 | 259 | 10.4 | 16.5 | 0.00 | 0.38 | 0.33 | 44 | 1006.4 |
| 20260507210059 | 58 | 317 | 8.7 | 14.8 | 0.00 | 0.38 | 0.33 | 45 | 1006.3 |
| 20260507204551 | 58 | 307 | 13.9 | 18.2 | 0.00 | 0.38 | 0.33 | 45 | 1006.1 |
| 20260507203104 | 58 | 285 | 6.1 | 13.9 | 0.00 | 0.44 | 0.33 | 46 | 1006.3 |
| 20260507201558 | 58 | 274 | 9.6 | 14.8 | 0.00 | 0.44 | 0.33 | 43 | 1006.3 |
| 20260507200103 | 58 | 301 | 10.4 | 14.8 | 0.00 | 0.44 | 0.33 | 44 | 1006.2 |
| 20260507194547 | 59 | 297 | 9.6 | 16.5 | 0.00 | 0.44 | 0.33 | 41 | 1006.3 |
| 20260507193048 | 58 | 328 | 8.7 | 18.2 | 0.00 | 0.49 | 0.33 | 43 | 1006.4 |
| 20260507191544 | 57 | 326 | 11.3 | 17.4 | 0.00 | 0.49 | 0.33 | 45 | 1006.7 |
| 20260507190039 | 58 | 286 | 7.0 | 16.5 | 0.00 | 0.49 | 0.33 | 39 | 1006.8 |
| 20260507184541 | 57 | 292 | 10.4 | 16.5 | 0.00 | 0.49 | 0.33 | 46 | 1006.9 |
| 20260507183037 | 57 | 252 | 4.3 | 13.0 | 0.00 | 0.52 | 0.33 | 47 | 1007.1 |
| 20260507181537 | 57 | 319 | 6.1 | 13.9 | 0.00 | 0.52 | 0.33 | 43 | 1007.2 |
| 20260507180038 | 57 | 323 | 11.3 | 19.1 | 0.00 | 0.52 | 0.33 | 46 | 1007.2 |
| 20260507174536 | 57 | 312 | 8.7 | 14.8 | 0.00 | 0.52 | 0.33 | 42 | 1007.5 |
| 20260507173033 | 56 | 278 | 9.6 | 14.8 | 0.00 | 0.52 | 0.33 | 44 | 1007.5 |
| 20260507171530 | 56 | 303 | 12.2 | 16.5 | 0.00 | 0.52 | 0.33 | 44 | 1007.5 |
| 20260507170105 | 56 | 328 | 10.4 | 16.5 | 0.00 | 0.52 | 0.33 | 44 | 1007.5 |
| 20260507164604 | 55 | 308 | 12.2 | 17.4 | 0.00 | 0.52 | 0.33 | 45 | 1007.7 |
| 20260507163055 | 55 | 288 | 7.8 | 16.5 | 0.00 | 0.52 | 0.33 | 48 | 1008.0 |
| 20260507161653 | 55 | 247 | 4.3 | 12.2 | 0.00 | 0.52 | 0.33 | 46 | 1008.0 |
| 20260507160055 | 55 | 274 | 6.1 | 14.8 | 0.00 | 0.52 | 0.33 | 48 | 1008.2 |
| 20260507154555 | 54 | 268 | 6.1 | 13.9 | 0.00 | 0.52 | 0.33 | 49 | 1008.2 |
| 20260507153048 | 54 | 290 | 7.0 | 13.0 | 0.00 | 0.52 | 0.33 | 53 | 1008.3 |
| 20260507151546 | 53 | 339 | 7.0 | 12.2 | 0.00 | 0.52 | 0.33 | 56 | 1008.4 |
| 20260507150046 | 53 | 297 | 5.2 | 12.2 | 0.00 | 0.52 | 0.33 | 58 | 1008.4 |
| 20260507144545 | 53 | 315 | 7.0 | 12.2 | 0.00 | 0.52 | 0.33 | 63 | 1008.5 |
| 20260507143039 | 53 | 284 | 7.0 | 12.2 | 0.00 | 0.52 | 0.33 | 60 | 1008.5 |
| 20260507141542 | 52 | 296 | 7.0 | 9.6 | 0.00 | 0.52 | 0.33 | 59 | 1008.7 |
| 20260507140038 | 52 | 288 | 6.1 | 11.3 | 0.00 | 0.52 | 0.33 | 67 | 1008.6 |
| 20260507134538 | 52 | 291 | 6.1 | 12.2 | 0.00 | 0.52 | 0.33 | 70 | 1008.6 |
| 20260507133052 | 51 | 293 | 4.3 | 11.3 | 0.00 | 0.52 | 0.33 | 73 | 1008.6 |
| 20260507133043 | 51 | 289 | 4.3 | 11.3 | 0.00 | 0.52 | 0.33 | 73 | 1008.6 |
| 20260507131534 | 51 | 302 | 9.6 | 15.6 | 0.00 | 0.52 | 0.33 | 74 | 1008.7 |
| 20260507130025 | 50 | 265 | 8.7 | 14.8 | 0.00 | 0.52 | 0.33 | 78 | 1008.7 |
| 20260507124529 | 50 | 289 | 10.4 | 13.9 | 0.00 | 0.52 | 0.33 | 81 | 1008.5 |
| 20260507123021 | 50 | 311 | 7.0 | 14.8 | 0.00 | 0.52 | 0.33 | 84 | 1008.4 |
| 20260507121603 | 49 | 268 | 4.3 | 8.7 | 0.00 | 0.52 | 0.33 | 86 | 1008.5 |
| 20260507120056 | 49 | 282 | 3.5 | 8.7 | 0.00 | 0.52 | 0.33 | 87 | 1008.5 |
| 20260507114617 | 49 | 283 | 2.6 | 7.0 | 0.00 | 0.52 | 0.33 | 88 | 1008.2 |
| 20260507113041 | 49 | 305 | 3.5 | 7.8 | 0.00 | 0.52 | 0.33 | 88 | 1008.2 |
| 20260507111540 | 49 | 297 | 2.6 | 7.0 | 0.00 | 0.52 | 0.33 | 87 | 1008.3 |
| 20260507110038 | 49 | 311 | 3.5 | 7.8 | 0.00 | 0.52 | 0.33 | 88 | 1008.2 |
| 20260507104535 | 49 | 306 | 2.6 | 8.7 | 0.00 | 0.52 | 0.33 | 88 | 1008.1 |
| 20260507103033 | 50 | 305 | 2.6 | 8.7 | 0.01 | 0.52 | 0.33 | 89 | 1007.6 |
| 20260507101532 | 49 | 313 | 2.6 | 5.2 | 0.01 | 0.52 | 0.33 | 89 | 1007.7 |
| 20260507094528 | 49 | 303 | 2.6 | 5.2 | 0.06 | 0.52 | 0.33 | 89 | 1007.5 |
| 20260507093027 | 49 | 303 | 2.6 | 8.7 | 0.09 | 0.51 | 0.32 | 90 | 1007.7 |
| 20260507091530 | 50 | 330 | 2.6 | 8.7 | 0.14 | 0.51 | 0.32 | 90 | 1007.3 |
| 20260507090029 | 50 | 317 | 5.2 | 8.7 | 0.12 | 0.47 | 0.28 | 89 | 1007.4 |
| 20260507084519 | 50 | 310 | 5.2 | 8.7 | 0.13 | 0.46 | 0.27 | 89 | 1007.1 |
| 20260507083016 | 50 | 317 | 6.1 | 9.6 | 0.10 | 0.42 | 0.23 | 88 | 1007.6 |
| 20260507081513 | 51 | 288 | 4.3 | 8.7 | 0.06 | 0.37 | 0.18 | 88 | 1007.5 |
| 20260507080010 | 51 | 294 | 4.3 | 7.8 | 0.04 | 0.35 | 0.16 | 87 | 1007.6 |
| 20260507074507 | 51 | 322 | 4.3 | 8.7 | 0.02 | 0.33 | 0.14 | 87 | 1007.4 |
| 20260507073004 | 52 | 288 | 6.1 | 11.3 | 0.01 | 0.32 | 0.13 | 88 | 1007.3 |
| 20260507071502 | 52 | 308 | 6.1 | 9.6 | 0.00 | 0.31 | 0.12 | 89 | 1007.3 |
| 20260507070100 | 52 | 330 | 7.0 | 10.4 | 0.00 | 0.31 | 0.12 | 89 | 1006.9 |
| 20260507064603 | 52 | 328 | 2.6 | 7.0 | 0.00 | 0.31 | 0.12 | 88 | 1006.1 |
| 20260507063105 | 52 | 293 | 2.6 | 7.8 | 0.00 | 0.31 | 0.12 | 88 | 1006.5 |
| 20260507061553 | 53 | 295 | 6.1 | 9.6 | 0.00 | 0.31 | 0.12 | 88 | 1006.7 |